Hastings, NE

5:38 PM CDT on August 18, 2017 (GMT -0500)
Hastings Municipal

Weather History for KHSI - October, 2013

Change the Weather History Date:

Thursday, October 3, 2013

  Actual Average Record
Temperature  
Mean Temperature 68 °F 58 °F  
Max Temperature 75 °F 70 °F 94 °F (1938)
Min Temperature 60 °F 47 °F 30 °F (1950)
Degree Days  
Heating Degree Days 0 8  
Month to date heating degree days 0 22  
Since 1 July heating degree days 35 118  
Cooling Degree Days 3 1  
Month to date cooling degree days 11 3  
Year to date cooling degree days 1154 1066  
Growing Degree Days 16 (Base 50)    
Moisture  
Dew Point 58 °F    
Average Humidity 79    
Maximum Humidity 90    
Minimum Humidity 68    
Precipitation  
Precipitation 3.49 in 0.07 in 3.49 in (2013)
Month to date precipitation 4.13 0.21  
Year to date precipitation 23.45 23.43  
Snow  
Snow 0.00 in 0.00 in - ()
Month to date snowfall 0.0 0.0  
Since 1 July snowfall 0.0 0.2  
Since 1 September snowfall 0.0 0.2  
Snow Depth 0.00 in    
Sea Level Pressure  
Sea Level Pressure 29.77 in    
Wind  
Wind Speed 12 mph (East)    
Max Wind Speed 21 mph    
Max Gust Speed 29 mph    
Visibility 7 miles    
Events Rain , Thunderstorm    
T = Trace of Precipitation, MM = Missing Value Source: NWS Daily Summary

Daily Weather History Graph

Daily Weather History Graph

Search for Another Location

Airport or City:

Trip Planner

Search our weather history database for the weather conditions in past years. The results will help you decide how hot, cold, wet, or windy it might be!

Date:

Astronomy

Oct. 03, 2013 Rise Set
Actual Time 7:32 AM CDT 7:12 PM CDT
Civil Twilight 7:05 AM CDT 7:39 PM CDT
Nautical Twilight 6:33 AM CDT 8:10 PM CDT
Astronomical Twilight 6:01 AM CDT 8:42 PM CDT
Moon 6:07 AM CDT (10/3) 6:21 PM CDT (10/3)
Length of Visible Light 12h 34m
Length of Day
11h 39m
Waning Crescent, 2% of the Moon is Illuminated
Oct 3
Waning Crescent
Oct 4
New
Oct 11
First Quarter
Oct 18
Full
Oct 26
Last Quarter

Hourly Weather History & Observations

Time (CDT) Temp. Dew Point Humidity Pressure Visibility Wind Dir Wind Speed Gust Speed Precip Events Conditions
12:02 AM 62.6 °F 57.2 °F 82% 29.85 in 10.0 mi ENE 15.0 mph - 0.00 in Rain , Thunderstorm Light Thunderstorms and Rain
12:23 AM 62.6 °F 57.2 °F 82% 29.85 in 5.0 mi NE 12.7 mph 16.1 mph 0.07 in Rain , Thunderstorm Thunderstorms and Rain
12:44 AM 60.8 °F 57.2 °F 88% 29.81 in 2.5 mi ENE 13.8 mph 26.5 mph 0.27 in Rain , Thunderstorm Heavy Thunderstorms and Rain
12:53 AM 61.0 °F 59.0 °F 93% 29.79 in 1.8 mi WNW 9.2 mph 19.6 mph 0.42 in Rain , Thunderstorm Heavy Thunderstorms and Rain
1:05 AM 60.8 °F 59.0 °F 94% 29.88 in 1.0 mi Variable 4.6 mph - 0.36 in Rain , Thunderstorm Heavy Thunderstorms and Rain
1:09 AM 60.8 °F 59.0 °F 94% 29.87 in 0.8 mi SSW 9.2 mph 16.1 mph 0.58 in Rain , Thunderstorm Heavy Thunderstorms and Rain
1:23 AM 62.6 °F 59.0 °F 88% 29.81 in 2.0 mi NNW 15.0 mph 20.7 mph 0.85 in Rain , Thunderstorm Heavy Thunderstorms and Rain
1:32 AM 60.8 °F 59.0 °F 94% 29.80 in 3.0 mi North 16.1 mph - 0.95 in Rain , Thunderstorm Heavy Thunderstorms and Rain
1:49 AM 60.8 °F 57.2 °F 88% 29.81 in 0.8 mi East 15.0 mph 20.7 mph 1.35 in Rain , Thunderstorm Heavy Thunderstorms and Rain
1:53 AM 61.0 °F 59.0 °F 93% 29.77 in 0.8 mi East 11.5 mph 20.7 mph 1.41 in Rain , Thunderstorm Heavy Thunderstorms and Rain
1:58 AM 60.8 °F 59.0 °F 94% 29.81 in 2.0 mi East 15.0 mph 20.7 mph 0.10 in Rain , Thunderstorm Heavy Thunderstorms and Rain
2:15 AM 60.8 °F 59.0 °F 94% 29.83 in 1.8 mi NE 12.7 mph - 0.35 in Rain , Thunderstorm Heavy Thunderstorms and Rain
2:23 AM 60.8 °F 59.0 °F 94% 29.85 in 2.0 mi SE 9.2 mph - 0.38 in Rain , Thunderstorm Light Thunderstorms and Rain
2:25 AM 60.8 °F 59.0 °F 94% 29.84 in 3.0 mi ESE 9.2 mph - 0.40 in Rain , Thunderstorm Light Thunderstorms and Rain
2:41 AM 60.8 °F 57.2 °F 88% 29.83 in 2.5 mi East 8.1 mph - 0.67 in Rain , Thunderstorm Heavy Thunderstorms and Rain
2:49 AM 60.8 °F 57.2 °F 88% 29.82 in 1.0 mi ESE 12.7 mph - 1.01 in Rain , Thunderstorm Heavy Thunderstorms and Rain
2:53 AM 61.0 °F 57.9 °F 90% 29.76 in 1.0 mi SE 19.6 mph 24.2 mph 1.21 in Rain , Thunderstorm Heavy Thunderstorms and Rain
3:14 AM 60.8 °F 57.2 °F 88% 29.82 in 2.0 mi ESE 9.2 mph - 0.42 in Rain , Thunderstorm Heavy Thunderstorms and Rain
3:53 AM 60.1 °F 57.9 °F 93% 29.75 in 2.5 mi ESE 9.2 mph - 1.02 in Rain , Thunderstorm Heavy Thunderstorms and Rain
4:03 AM 60.8 °F 57.2 °F 88% 29.79 in 6.0 mi SE 12.7 mph - 0.02 in Rain , Thunderstorm Light Rain
4:43 AM 60.8 °F 57.2 °F 88% 29.80 in 6.0 mi SE 10.4 mph - 0.06 in Rain , Thunderstorm Rain
4:53 AM 60.1 °F 57.9 °F 93% 29.75 in 10.0 mi SE 11.5 mph - 0.07 in Rain , Thunderstorm Light Rain
5:14 AM 60.8 °F 57.2 °F 88% 29.79 in 10.0 mi SE 11.5 mph - 0.00 in Rain Light Rain
5:46 AM 60.8 °F 57.2 °F 88% 29.80 in 10.0 mi SSE 11.5 mph 20.7 mph 0.00 in   Overcast
5:53 AM 60.1 °F 57.9 °F 93% 29.76 in 10.0 mi SSE 12.7 mph - 0.00 in   Overcast
6:53 AM 60.1 °F 57.0 °F 90% 29.75 in 10.0 mi SE 13.8 mph 20.7 mph N/A   Overcast
7:33 AM 60.8 °F 57.2 °F 88% 29.78 in 10.0 mi SSE 12.7 mph - N/A   Scattered Clouds
7:53 AM 60.1 °F 57.0 °F 90% 29.74 in 10.0 mi SSE 12.7 mph 20.7 mph N/A   Mostly Cloudy
8:53 AM 61.0 °F 57.9 °F 90% 29.74 in 10.0 mi SSE 12.7 mph 21.9 mph N/A   Scattered Clouds
9:53 AM 64.9 °F 57.9 °F 78% 29.74 in 10.0 mi SSE 15.0 mph 23.0 mph N/A   Clear
10:53 AM 69.1 °F 59.0 °F 70% 29.73 in 10.0 mi SE 15.0 mph 26.5 mph N/A   Partly Cloudy
11:09 AM 69.8 °F 57.2 °F 64% 29.77 in 10.0 mi SE 18.4 mph 26.5 mph N/A   Mostly Cloudy
11:53 AM 70.0 °F 60.1 °F 71% 29.73 in 10.0 mi SSE 12.7 mph 23.0 mph N/A   Overcast
12:53 PM 70.0 °F 61.0 °F 73% 29.72 in 10.0 mi SSE 11.5 mph 20.7 mph N/A   Overcast
1:53 PM 71.1 °F 61.0 °F 70% 29.71 in 10.0 mi South 6.9 mph - N/A   Overcast
2:53 PM 73.0 °F 62.1 °F 68% 29.70 in 10.0 mi ESE 6.9 mph - N/A   Overcast
3:53 PM 72.0 °F 62.1 °F 71% 29.71 in 10.0 mi NE 6.9 mph - N/A   Overcast
4:53 PM 73.9 °F 62.1 °F 66% 29.69 in 10.0 mi NNE 12.7 mph - N/A   Mostly Cloudy
5:53 PM 64.9 °F 57.9 °F 78% 29.71 in 10.0 mi NE 17.3 mph 21.9 mph N/A   Partly Cloudy
6:53 PM 63.0 °F 57.0 °F 81% 29.70 in 10.0 mi NE 16.1 mph 23.0 mph N/A   Clear
7:53 PM 62.1 °F 57.9 °F 86% 29.71 in 10.0 mi NE 12.7 mph - N/A   Clear
8:25 PM 62.6 °F 57.2 °F 82% 29.74 in 10.0 mi NE 13.8 mph - N/A Thunderstorm Clear
8:40 PM 62.6 °F 57.2 °F 82% 29.73 in 10.0 mi NE 12.7 mph - N/A   Clear
8:53 PM 62.1 °F 57.9 °F 86% 29.70 in 10.0 mi NE 13.8 mph - N/A   Clear
9:40 PM 60.8 °F 57.2 °F 88% 29.73 in 10.0 mi NE 13.8 mph - N/A   Partly Cloudy
9:53 PM 62.1 °F 57.9 °F 86% 29.70 in 10.0 mi NE 13.8 mph 19.6 mph N/A   Partly Cloudy
11:42 PM 62.6 °F 59.0 °F 88% 29.72 in 10.0 mi NE 9.2 mph - N/A   Mostly Cloudy
11:53 PM 62.1 °F 57.9 °F 86% 29.69 in 10.0 mi NE 8.1 mph - N/A   Mostly Cloudy